カタログに戻る

STARLINK-31804

運用中通信VLEO
NORAD 59641·PAYLOAD·🇺🇸 United States

打ち上げ May 3, 2024 から Cape Canaveral Space Force Station

Loading…

次のパス (今後24時間)

TLE

最新Source: CelesTrak SupGP

元期: Sep 14, 2026, 21:15 UTC

1 59641C 24082L   26257.88590278 -.00043122  00000+0 -15621-2 0  2577
2 59641  43.0008 151.0487 0001389 266.0816 334.1803 15.27596300    19

AllMySatでSTARLINK-31804をリアルタイム追跡

Download on the App Store